Cincinnati, OH

4:11 PM EDT on March 30, 2017 (GMT -0400)
Norwood | | Change Station

Elev 620 ft 39.15 °N, 84.45 °W | Updated 34 seconds ago

Mostly Cloudy
Mostly Cloudy
79.6 °F
Feels Like 80 °F
N
4.0
Wind Variable Wind from ENE

Today
High -- | Low -- °F
--% Chance of Precip.
Yesterday
High -- | Low -- °F
Precip. -- in
Pressure 29.62 in
Visibility 10.0 miles
Clouds Few 9000 ft
Heat Index 80 °F
Dew Point 54 °F
Humidity 41%
Rainfall 0.00 in
Snow Depth Not available.
7:25 AM 7:59 PM
Waxing Crescent, 10% visible
METAR KLUK 301953Z 19014G22KT 10SM FEW090 24/13 A2963 RMK AO2 PK WND 18026/1856 SLP031 T02440128
Pressure 29.62 in
Visibility 10.0 miles
Clouds Few 9000 ft
Heat Index 80 °F
Dew Point 54 °F
Humidity 41%
Rainfall 0.00 in
Snow Depth Not available.
7:25 AM 7:59 PM
Waxing Crescent, 10% visible
METAR KLUK 301953Z 19014G22KT 10SM FEW090 24/13 A2963 RMK AO2 PK WND 18026/1856 SLP031 T02440128

Get Severe Weather Alerts

Thanks for signing up!

Be on the lookout for a verification email in your inbox.

You'll start receiving the daily forecast at 8 AM.

×

10-Day Weather Forecast

Almanac

Astronomy

Mar. 30, 2017 Rise Set
Actual Time
Civil Twilight
Nautical Twilight
Astronomical Twilight
Moon
Length of Visible Light
Length of Day
Tomorrow will be .
, % of the Moon is Illuminated

Today's Extremes

State Highs State Lows

Community

WunderPhotos

Upload Photos

1,962,540 photos uploaded!

WunderBlog® & News

Nearby

Air Quality

  Air Quality AQ Index Pollutant
Not available.

Snow Depth

Station Depth Elevation

Earthquake Activity

City Distance Mag. Time & Date
Minimum magnitude displayed is 2.5.

Earthquake Activity

City Distance Mag. Time & Date
Minimum magnitude displayed is 2.5.

Coastal Water Temperatures

Place Temperature

Stations

Nearby Weather Stations

Station Location Temp. Windchill Dew Point Humidity Wind Precip. Elev Updated Type
                   

Watches & Warnings

There are currently no watches in effect.